Time,TemperatureF,DewpointF,PressureIn,WindDirection,WindDirectionDegrees,WindSpeedMPH,WindSpeedGustMPH,Humidity,HourlyPrecipIn,Conditions,Clouds,dailyrainin,SolarRadiationWatts/m^2,SoftwareType,DateUTC
2013-03-04 00:01:00,32.0,32.0,-100.00,NE,40,4.0,11.0,100,0.00,,,0.00,0.000000,,2013-03-04 08:01:00,
2013-03-04 00:32:00,32.0,32.0,-100.00,NE,40,4.0,11.0,100,0.00,,,0.00,0.000000,,2013-03-04 08:32:00,
2013-03-04 00:42:00,32.0,32.0,-100.00,NE,40,4.0,11.0,100,0.00,,,0.00,0.000000,,2013-03-04 08:42:00,
2013-03-04 00:52:00,32.0,32.0,-100.00,NE,40,4.0,11.0,100,0.00,,,0.00,0.000000,,2013-03-04 08:52:00,
2013-03-04 01:01:00,31.0,31.0,-100.00,ENE,62,3.0,8.0,100,0.00,,,0.00,0.000000,,2013-03-04 09:01:00,
2013-03-04 01:22:00,31.0,31.0,-100.00,ENE,62,3.0,8.0,100,0.00,,,0.00,0.000000,,2013-03-04 09:22:00,
2013-03-04 01:32:00,31.0,31.0,-100.00,ENE,62,3.0,8.0,100,0.00,,,0.00,0.000000,,2013-03-04 09:32:00,
2013-03-04 01:42:00,31.0,31.0,-100.00,ENE,62,3.0,8.0,100,0.00,,,0.00,0.000000,,2013-03-04 09:42:00,
2013-03-04 01:52:00,31.0,31.0,-100.00,ENE,62,3.0,8.0,100,0.00,,,0.00,0.000000,,2013-03-04 09:52:00,
2013-03-04 02:01:00,32.0,32.0,-100.00,NE,41,8.0,14.0,100,0.00,,,0.00,0.000000,,2013-03-04 10:01:00,
2013-03-04 02:32:00,32.0,32.0,-100.00,NE,41,8.0,14.0,100,0.00,,,0.00,0.000000,,2013-03-04 10:32:00,
2013-03-04 02:42:00,32.0,32.0,-100.00,NE,41,8.0,14.0,100,0.00,,,0.00,0.000000,,2013-03-04 10:42:00,
2013-03-04 02:52:00,32.0,32.0,-100.00,NE,41,8.0,14.0,100,0.00,,,0.00,0.000000,,2013-03-04 10:52:00,
2013-03-04 03:01:00,31.0,31.0,-100.00,NE,42,11.0,17.0,100,0.00,,,0.00,0.000000,,2013-03-04 11:01:00,
2013-03-04 03:22:00,31.0,31.0,-100.00,NE,42,11.0,17.0,100,0.00,,,0.00,0.000000,,2013-03-04 11:22:00,
2013-03-04 03:32:00,31.0,31.0,-100.00,NE,42,11.0,17.0,100,0.00,,,0.00,0.000000,,2013-03-04 11:32:00,
2013-03-04 03:42:00,31.0,31.0,-100.00,NE,42,11.0,17.0,100,0.00,,,0.00,0.000000,,2013-03-04 11:42:00,
2013-03-04 03:52:00,31.0,31.0,-100.00,NE,42,11.0,17.0,100,0.00,,,0.00,0.000000,,2013-03-04 11:52:00,
2013-03-04 04:01:00,31.0,31.0,-100.00,NE,47,14.0,18.0,100,0.00,,,0.00,0.000000,,2013-03-04 12:01:00,
2013-03-04 04:22:00,31.0,31.0,-100.00,NE,47,14.0,18.0,100,0.00,,,0.00,0.000000,,2013-03-04 12:22:00,
2013-03-04 04:32:00,31.0,31.0,-100.00,NE,47,14.0,18.0,100,0.00,,,0.00,0.000000,,2013-03-04 12:32:00,
2013-03-04 04:42:00,31.0,31.0,-100.00,NE,47,14.0,18.0,100,0.00,,,0.00,0.000000,,2013-03-04 12:42:00,
2013-03-04 04:52:00,31.0,31.0,-100.00,NE,47,14.0,18.0,100,0.00,,,0.00,0.000000,,2013-03-04 12:52:00,
2013-03-04 05:01:00,30.0,30.0,-100.00,NE,45,9.0,17.0,100,0.00,,,0.00,0.000000,,2013-03-04 13:01:00,
2013-03-04 05:22:00,30.0,30.0,-100.00,NE,45,9.0,17.0,100,0.00,,,0.00,0.000000,,2013-03-04 13:22:00,
2013-03-04 05:32:00,30.0,30.0,-100.00,NE,45,9.0,17.0,100,0.00,,,0.00,0.000000,,2013-03-04 13:32:00,
2013-03-04 05:42:00,30.0,30.0,-100.00,NE,45,9.0,17.0,100,0.00,,,0.00,0.000000,,2013-03-04 13:42:00,
2013-03-04 05:52:00,30.0,30.0,-100.00,NE,45,9.0,17.0,100,0.00,,,0.00,0.000000,,2013-03-04 13:52:00,
2013-03-04 06:01:00,29.0,28.0,-100.00,ENE,71,10.0,16.0,96,0.00,,,0.00,0.000000,,2013-03-04 14:01:00,
2013-03-04 06:32:00,29.0,28.0,-100.00,ENE,71,10.0,16.0,96,0.00,,,0.00,0.000000,,2013-03-04 14:32:00,
2013-03-04 06:42:00,29.0,28.0,-100.00,ENE,71,10.0,16.0,96,0.00,,,0.00,0.000000,,2013-03-04 14:42:00,
2013-03-04 06:52:00,29.0,28.0,-100.00,ENE,71,10.0,16.0,96,0.00,,,0.00,0.000000,,2013-03-04 14:52:00,
2013-03-04 07:01:00,29.0,28.0,-100.00,ENE,71,9.0,14.0,97,0.00,,,0.00,0.000000,,2013-03-04 15:01:00,
2013-03-04 07:32:00,29.0,28.0,-100.00,ENE,71,9.0,14.0,97,0.00,,,0.00,0.000000,,2013-03-04 15:32:00,
2013-03-04 07:42:00,29.0,28.0,-100.00,ENE,71,9.0,14.0,97,0.00,,,0.00,0.000000,,2013-03-04 15:42:00,
2013-03-04 07:52:00,29.0,28.0,-100.00,ENE,71,9.0,14.0,97,0.00,,,0.00,0.000000,,2013-03-04 15:52:00,
2013-03-04 08:01:00,29.0,25.0,-100.00,NE,46,8.0,17.0,83,0.00,,,0.00,2.000000,,2013-03-04 16:01:00,
2013-03-04 08:32:00,29.0,25.0,-100.00,NE,46,8.0,17.0,83,0.00,,,0.00,2.000000,,2013-03-04 16:32:00,
2013-03-04 08:42:00,29.0,25.0,-100.00,NE,46,8.0,17.0,83,0.00,,,0.00,2.000000,,2013-03-04 16:42:00,
2013-03-04 08:52:00,29.0,25.0,-100.00,NE,46,8.0,17.0,83,0.00,,,0.00,2.000000,,2013-03-04 16:52:00,
2013-03-04 09:01:00,32.0,24.0,-100.00,ENE,60,7.0,12.0,73,0.00,,,0.00,65.000000,,2013-03-04 17:01:00,
2013-03-04 09:22:00,32.0,24.0,-100.00,ENE,60,7.0,12.0,73,0.00,,,0.00,65.000000,,2013-03-04 17:22:00,
2013-03-04 09:32:00,32.0,24.0,-100.00,ENE,60,7.0,12.0,73,0.00,,,0.00,65.000000,,2013-03-04 17:32:00,
2013-03-04 09:42:00,32.0,24.0,-100.00,ENE,60,7.0,12.0,73,0.00,,,0.00,65.000000,,2013-03-04 17:42:00,
2013-03-04 09:52:00,32.0,24.0,-100.00,ENE,60,7.0,12.0,73,0.00,,,0.00,65.000000,,2013-03-04 17:52:00,
2013-03-04 10:01:00,34.0,24.0,-100.00,NE,53,10.0,14.0,66,0.00,,,0.00,266.000000,,2013-03-04 18:01:00,
2013-03-04 10:32:00,34.0,24.0,-100.00,NE,53,10.0,14.0,66,0.00,,,0.00,266.000000,,2013-03-04 18:32:00,
2013-03-04 10:42:00,34.0,24.0,-100.00,NE,53,10.0,14.0,66,0.00,,,0.00,266.000000,,2013-03-04 18:42:00,
2013-03-04 10:52:00,34.0,24.0,-100.00,NE,53,10.0,14.0,66,0.00,,,0.00,266.000000,,2013-03-04 18:52:00,
2013-03-04 11:01:00,32.0,22.0,-100.00,NE,54,10.0,16.0,65,0.00,,,0.00,459.000000,,2013-03-04 19:01:00,
2013-03-04 11:32:00,32.0,22.0,-100.00,NE,54,10.0,16.0,65,0.00,,,0.00,459.000000,,2013-03-04 19:32:00,
2013-03-04 11:42:00,32.0,22.0,-100.00,NE,54,10.0,16.0,65,0.00,,,0.00,459.000000,,2013-03-04 19:42:00,
2013-03-04 11:52:00,32.0,22.0,-100.00,NE,54,10.0,16.0,65,0.00,,,0.00,459.000000,,2013-03-04 19:52:00,
2013-03-04 12:01:00,35.0,23.0,-100.00,East,81,9.0,17.0,61,0.00,,,0.00,597.000000,,2013-03-04 20:01:00,
2013-03-04 12:32:00,35.0,23.0,-100.00,East,81,9.0,17.0,61,0.00,,,0.00,597.000000,,2013-03-04 20:32:00,
2013-03-04 12:42:00,35.0,23.0,-100.00,East,81,9.0,17.0,61,0.00,,,0.00,597.000000,,2013-03-04 20:42:00,
2013-03-04 12:52:00,35.0,23.0,-100.00,East,81,9.0,17.0,61,0.00,,,0.00,597.000000,,2013-03-04 20:52:00,
2013-03-04 13:01:00,39.0,27.0,-100.00,ENE,72,5.0,13.0,61,0.00,,,0.00,646.000000,,2013-03-04 21:01:00,
2013-03-04 13:32:00,39.0,27.0,-100.00,ENE,72,5.0,13.0,61,0.00,,,0.00,646.000000,,2013-03-04 21:32:00,
2013-03-04 13:43:00,39.0,27.0,-100.00,ENE,72,5.0,13.0,61,0.00,,,0.00,646.000000,,2013-03-04 21:43:00,
2013-03-04 13:52:00,39.0,27.0,-100.00,ENE,72,5.0,13.0,61,0.00,,,0.00,646.000000,,2013-03-04 21:52:00,
2013-03-04 14:01:00,42.0,28.0,-100.00,East,91,5.0,11.0,58,0.00,,,0.00,644.000000,,2013-03-04 22:01:00,
2013-03-04 14:22:00,42.0,28.0,-100.00,East,91,5.0,11.0,58,0.00,,,0.00,644.000000,,2013-03-04 22:22:00,
2013-03-04 14:32:00,42.0,28.0,-100.00,East,91,5.0,11.0,58,0.00,,,0.00,644.000000,,2013-03-04 22:32:00,
2013-03-04 14:42:00,42.0,28.0,-100.00,East,91,5.0,11.0,58,0.00,,,0.00,644.000000,,2013-03-04 22:42:00,
2013-03-04 14:52:00,42.0,28.0,-100.00,East,91,5.0,11.0,58,0.00,,,0.00,644.000000,,2013-03-04 22:52:00,
2013-03-04 15:01:00,43.0,28.0,-100.00,East,92,8.0,12.0,55,0.00,,,0.00,593.000000,,2013-03-04 23:01:00,
2013-03-04 15:32:00,43.0,28.0,-100.00,East,92,8.0,12.0,55,0.00,,,0.00,593.000000,,2013-03-04 23:32:00,
2013-03-04 15:42:00,43.0,28.0,-100.00,East,92,8.0,12.0,55,0.00,,,0.00,593.000000,,2013-03-04 23:42:00,
2013-03-04 15:52:00,43.0,28.0,-100.00,East,92,8.0,12.0,55,0.00,,,0.00,593.000000,,2013-03-04 23:52:00,
2013-03-04 16:01:00,45.0,25.0,-100.00,SE,128,9.0,20.0,46,0.00,,,0.00,561.000000,,2013-03-05 00:01:00,
2013-03-04 16:32:00,45.0,25.0,-100.00,SE,128,9.0,20.0,46,0.00,,,0.00,561.000000,,2013-03-05 00:32:00,
2013-03-04 16:42:00,45.0,25.0,-100.00,SE,128,9.0,20.0,46,0.00,,,0.00,561.000000,,2013-03-05 00:42:00,
2013-03-04 16:52:00,45.0,25.0,-100.00,SE,128,9.0,20.0,46,0.00,,,0.00,561.000000,,2013-03-05 00:52:00,
2013-03-04 17:01:00,44.0,21.0,-100.00,SE,146,11.0,22.0,40,0.00,,,0.00,409.000000,,2013-03-05 01:01:00,
2013-03-04 17:33:00,44.0,21.0,-100.00,SE,146,11.0,22.0,40,0.00,,,0.00,409.000000,,2013-03-05 01:33:00,
2013-03-04 17:42:00,44.0,21.0,-100.00,SE,146,11.0,22.0,40,0.00,,,0.00,409.000000,,2013-03-05 01:42:00,
2013-03-04 17:52:00,44.0,21.0,-100.00,SE,146,11.0,22.0,40,0.00,,,0.00,409.000000,,2013-03-05 01:52:00,
2013-03-04 18:01:00,42.0,19.0,-100.00,SSE,154,12.0,18.0,40,0.00,,,0.00,255.000000,,2013-03-05 02:01:00,
2013-03-04 18:32:00,42.0,19.0,-100.00,SSE,154,12.0,18.0,40,0.00,,,0.00,255.000000,,2013-03-05 02:32:00,
2013-03-04 18:42:00,42.0,19.0,-100.00,SSE,154,12.0,18.0,40,0.00,,,0.00,255.000000,,2013-03-05 02:42:00,
2013-03-04 18:52:00,42.0,19.0,-100.00,SSE,154,12.0,18.0,40,0.00,,,0.00,255.000000,,2013-03-05 02:52:00,
2013-03-04 19:01:00,42.0,19.0,-100.00,SSE,151,15.0,19.0,40,0.00,,,0.00,69.000000,,2013-03-05 03:01:00,
2013-03-04 19:22:00,42.0,19.0,-100.00,SSE,151,15.0,19.0,40,0.00,,,0.00,69.000000,,2013-03-05 03:22:00,
2013-03-04 19:32:00,42.0,19.0,-100.00,SSE,151,15.0,19.0,40,0.00,,,0.00,69.000000,,2013-03-05 03:32:00,
2013-03-04 19:42:00,42.0,19.0,-100.00,SSE,151,15.0,19.0,40,0.00,,,0.00,69.000000,,2013-03-05 03:42:00,
2013-03-04 19:52:00,42.0,19.0,-100.00,SSE,151,15.0,19.0,40,0.00,,,0.00,69.000000,,2013-03-05 03:52:00,
2013-03-04 20:01:00,41.0,19.0,-100.00,SSE,149,14.0,23.0,41,0.00,,,0.00,0.000000,,2013-03-05 04:01:00,
2013-03-04 20:32:00,41.0,19.0,-100.00,SSE,149,14.0,23.0,41,0.00,,,0.00,0.000000,,2013-03-05 04:32:00,
2013-03-04 20:42:00,41.0,19.0,-100.00,SSE,149,14.0,23.0,41,0.00,,,0.00,0.000000,,2013-03-05 04:42:00,
2013-03-04 20:52:00,41.0,19.0,-100.00,SSE,149,14.0,23.0,41,0.00,,,0.00,0.000000,,2013-03-05 04:52:00,
2013-03-04 21:01:00,39.0,19.0,-100.00,SSE,151,17.0,22.0,44,0.00,,,0.00,0.000000,,2013-03-05 05:01:00,
2013-03-04 21:22:00,39.0,19.0,-100.00,SSE,151,17.0,22.0,44,0.00,,,0.00,0.000000,,2013-03-05 05:22:00,
2013-03-04 21:32:00,39.0,19.0,-100.00,SSE,151,17.0,22.0,44,0.00,,,0.00,0.000000,,2013-03-05 05:32:00,
2013-03-04 21:42:00,39.0,19.0,-100.00,SSE,151,17.0,22.0,44,0.00,,,0.00,0.000000,,2013-03-05 05:42:00,
2013-03-04 21:52:00,39.0,19.0,-100.00,SSE,151,17.0,22.0,44,0.00,,,0.00,0.000000,,2013-03-05 05:52:00,
2013-03-04 22:01:00,38.0,20.0,-100.00,SSE,164,13.0,23.0,48,0.00,,,0.00,0.000000,,2013-03-05 06:01:00,
2013-03-04 22:22:00,38.0,20.0,-100.00,SSE,164,13.0,23.0,48,0.00,,,0.00,0.000000,,2013-03-05 06:22:00,
2013-03-04 22:32:00,38.0,20.0,-100.00,SSE,164,13.0,23.0,48,0.00,,,0.00,0.000000,,2013-03-05 06:32:00,
2013-03-04 22:42:00,38.0,20.0,-100.00,SSE,164,13.0,23.0,48,0.00,,,0.00,0.000000,,2013-03-05 06:42:00,
2013-03-04 22:52:00,38.0,20.0,-100.00,SSE,164,13.0,23.0,48,0.00,,,0.00,0.000000,,2013-03-05 06:52:00,
2013-03-04 23:01:00,37.0,20.0,-100.00,SSE,159,16.0,22.0,49,0.00,,,0.00,0.000000,,2013-03-05 07:01:00,
2013-03-04 23:22:00,37.0,20.0,-100.00,SSE,159,16.0,22.0,49,0.00,,,0.00,0.000000,,2013-03-05 07:22:00,
2013-03-04 23:32:00,37.0,20.0,-100.00,SSE,159,16.0,22.0,49,0.00,,,0.00,0.000000,,2013-03-05 07:32:00,
2013-03-04 23:42:00,37.0,20.0,-100.00,SSE,159,16.0,22.0,49,0.00,,,0.00,0.000000,,2013-03-05 07:42:00,
2013-03-04 23:52:00,37.0,20.0,-100.00,SSE,159,16.0,22.0,49,0.00,,,0.00,0.000000,,2013-03-05 07:52:00,